BAW543Q LIPE-EGLL

Flight info

Callsign BAW543Q
Flight time N/A
Altitude 36000
Route LUPOS1J LUPOS DCT OSBUL DCT IBNAN DCT ABESI DCT UTAVO DCT HOC DCT LUL DCT RLP DCT ROTSI DCT KOTUN DCT NINAL DCT ABNUR DCT DIMAL DCT ALESO ALESO1H
Aircraft A320/M-SDE3FGIJ1KRWXY/SB1

Departure

Time 2026-04-30 18:41
Airport Bologna Guglielmo Marconi Airport (LIPE)

Arrival

Time N/A
Airport London Heathrow Airport (EGLL)
Time Latitude Longitude Altitude Speed Heading
2026-04-30 18:03 44.57813 10.51520 25356 ft 390 kts 329°
2026-04-30 18:04 44.64713 10.45291 26580 ft 396 kts 329°
2026-04-30 18:05 44.74073 10.36779 28082 ft 406 kts 329°
2026-04-30 18:06 44.83733 10.28296 29506 ft 414 kts 335°
2026-04-30 18:07 44.94144 10.21079 30971 ft 417 kts 335°
2026-04-30 18:08 45.01919 10.15663 32300 ft 413 kts 335°
2026-04-30 18:09 45.12111 10.08489 34139 ft 406 kts 332°
2026-04-30 18:10 45.21408 9.99468 35549 ft 404 kts 327°
2026-04-30 18:11 45.30671 9.90323 36266 ft 410 kts 327°
2026-04-30 18:11 45.37682 9.83368 36252 ft 412 kts 327°
2026-04-30 18:13 45.48882 9.72216 36217 ft 412 kts 327°
2026-04-30 18:14 45.60631 9.60491 36185 ft 413 kts 327°
2026-04-30 18:15 45.74645 9.46380 36269 ft 415 kts 326°
2026-04-30 18:16 45.84099 9.36825 36275 ft 416 kts 326°
2026-04-30 18:17 45.88813 9.32033 36274 ft 416 kts 326°
2026-04-30 18:18 45.95905 9.24819 36266 ft 417 kts 326°
2026-04-30 18:18 45.99084 9.21581 36262 ft 417 kts 326°
2026-04-30 18:19 46.00562 9.20399 36144 ft 413 kts 342°
2026-04-30 18:19 46.03430 9.19149 35489 ft 417 kts 346°
2026-04-30 18:19 46.05311 9.18490 34989 ft 418 kts 348°
2026-04-30 18:19 46.08183 9.17707 34264 ft 418 kts 352°
2026-04-30 18:20 46.10864 9.17216 33525 ft 418 kts 355°
2026-04-30 18:20 46.13752 9.16943 32790 ft 417 kts 359°
2026-04-30 18:20 46.16612 9.16934 32128 ft 419 kts
2026-04-30 18:20 46.19570 9.17195 31491 ft 421 kts
2026-04-30 18:21 46.22464 9.17717 30893 ft 423 kts 10°
2026-04-30 18:21 46.25388 9.18518 30307 ft 425 kts 14°
2026-04-30 18:21 46.28244 9.19569 29647 ft 427 kts 17°
2026-04-30 18:21 46.31090 9.20894 29005 ft 428 kts 20°
2026-04-30 18:22 46.33838 9.22454 28398 ft 429 kts 24°
2026-04-30 18:22 46.39196 9.26372 27257 ft 432 kts 30°
2026-04-30 18:22 46.41721 9.28662 26733 ft 433 kts 33°
2026-04-30 18:23 46.44196 9.31222 26230 ft 435 kts 37°
2026-04-30 18:23 46.46543 9.33976 25754 ft 436 kts 40°
2026-04-30 18:23 46.48785 9.36951 25290 ft 438 kts 43°
2026-04-30 18:23 46.50445 9.39378 24950 ft 439 kts 42°
2026-04-30 18:24 46.55149 9.43975 26420 ft 422 kts 349°
2026-04-30 18:24 46.57561 9.41483 26198 ft 459 kts 297°
2026-04-30 18:24 46.57586 9.36883 26579 ft 475 kts 245°
2026-04-30 18:25 46.56253 9.32577 27505 ft 467 kts 244°
2026-04-30 18:25 46.53529 9.24111 28701 ft 461 kts 242°
2026-04-30 18:25 46.52182 9.20227 29204 ft 460 kts 240°
2026-04-30 18:26 44.52983 11.29563 128 ft 0 kts 207°
2026-04-30 18:36 44.52994 11.29571 103 ft 2 kts 207°
2026-04-30 18:36 44.53009 11.29581 102 ft 2 kts 207°
2026-04-30 18:36 44.53033 11.29610 123 ft 2 kts 258°
2026-04-30 18:37 44.53036 11.29615 123 ft 6 kts 276°
2026-04-30 18:37 44.53096 11.29555 125 ft 9 kts 323°
2026-04-30 18:37 44.53130 11.29471 124 ft 11 kts 296°
2026-04-30 18:37 44.53167 11.29366 125 ft 13 kts 298°
2026-04-30 18:38 44.53212 11.29245 124 ft 15 kts 297°
2026-04-30 18:38 44.53263 11.29102 127 ft 19 kts 297°
2026-04-30 18:38 44.53332 11.28912 124 ft 22 kts 297°
2026-04-30 18:38 44.53404 11.28714 122 ft 24 kts 297°
2026-04-30 18:39 44.53486 11.28498 123 ft 26 kts 298°
2026-04-30 18:39 44.53564 11.28260 126 ft 28 kts 296°
2026-04-30 18:39 44.53650 11.28024 126 ft 27 kts 297°
2026-04-30 18:39 44.53739 11.27780 125 ft 29 kts 296°
2026-04-30 18:40 44.53833 11.27517 125 ft 31 kts 296°
2026-04-30 18:40 44.53972 11.27295 122 ft 31 kts 326°
2026-04-30 18:40 44.54111 11.27259 123 ft 18 kts 67°
2026-04-30 18:40 44.54068 11.27410 123 ft 20 kts 116°
2026-04-30 18:41 44.53945 11.27768 123 ft 71 kts 118°
2026-04-30 18:41 44.53624 11.28643 125 ft 128 kts 116°
2026-04-30 18:41 44.53163 11.29942 248 ft 160 kts 114°
2026-04-30 18:41 44.52717 11.31336 999 ft 148 kts 105°
2026-04-30 18:42 44.52624 11.32817 1463 ft 164 kts 81°
2026-04-30 18:42 44.54183 11.35570 2182 ft 213 kts 22°
2026-04-30 18:42 44.55715 11.35925 2683 ft 234 kts
2026-04-30 18:45 44.69233 11.35329 10448 ft 304 kts 249°
2026-04-30 18:45 44.68019 11.32874 11191 ft 309 kts 225°
2026-04-30 18:45 44.66361 11.30960 11933 ft 312 kts 216°
2026-04-30 18:46 44.64557 11.29210 12664 ft 316 kts 215°
2026-04-30 18:46 44.62748 11.27428 13380 ft 319 kts 216°
2026-04-30 18:46 44.60924 11.25645 14066 ft 323 kts 216°
2026-04-30 18:46 44.59067 11.23801 14691 ft 327 kts 217°
2026-04-30 18:47 44.57196 11.21888 15037 ft 342 kts 218°
2026-04-30 18:47 44.55371 11.19617 15167 ft 360 kts 231°
2026-04-30 18:47 44.53970 11.16679 15369 ft 371 kts 248°
2026-04-30 18:47 44.53137 11.13252 15846 ft 372 kts 262°
2026-04-30 18:48 44.52871 11.09634 16421 ft 372 kts 271°
2026-04-30 18:48 44.52720 11.06057 17009 ft 375 kts 271°
2026-04-30 18:48 44.52557 11.02370 17623 ft 378 kts 271°
2026-04-30 18:48 44.52389 10.98699 18246 ft 381 kts 271°
2026-04-30 18:49 44.52216 10.94968 18848 ft 384 kts 271°
2026-04-30 18:49 44.52040 10.91238 19424 ft 386 kts 271°
2026-04-30 18:49 44.51860 10.87447 20003 ft 389 kts 271°
2026-04-30 18:49 44.51682 10.83679 20577 ft 392 kts 271°
2026-04-30 18:50 44.51502 10.79826 21139 ft 394 kts 271°
2026-04-30 18:50 44.51322 10.76015 21686 ft 397 kts 271°
2026-04-30 18:50 44.51139 10.72121 22210 ft 400 kts 271°
2026-04-30 18:50 44.50965 10.68263 22717 ft 402 kts 272°
2026-04-30 18:51 44.51134 10.64386 23227 ft 397 kts 285°
2026-04-30 18:51 44.51886 10.60695 23733 ft 393 kts 297°
2026-04-30 18:51 44.53176 10.57320 24157 ft 390 kts 309°
2026-04-30 18:51 44.54936 10.54449 24561 ft 387 kts 320°
2026-04-30 18:52 44.57053 10.52192 24971 ft 386 kts 329°
2026-04-30 18:52 44.59333 10.50156 25368 ft 388 kts 329°
2026-04-30 18:52 44.61587 10.48123 25750 ft 390 kts 329°
2026-04-30 18:52 44.63898 10.46028 26123 ft 393 kts 329°
2026-04-30 18:53 44.66191 10.43947 26498 ft 395 kts 329°
2026-04-30 18:53 44.68508 10.41838 26865 ft 397 kts 329°
2026-04-30 18:53 44.70821 10.39725 27224 ft 400 kts 329°
2026-04-30 18:53 44.73166 10.37580 27589 ft 402 kts 329°
2026-04-30 18:54 44.75070 10.35841 27879 ft 404 kts 329°
2026-04-30 18:54 44.77458 10.33662 28239 ft 406 kts 329°
2026-04-30 18:54 44.79848 10.31490 28598 ft 408 kts 329°
2026-04-30 18:54 44.82247 10.29360 28936 ft 410 kts 332°
2026-04-30 18:55 44.84786 10.27555 29264 ft 412 kts 335°
2026-04-30 18:55 44.89959 10.23979 29936 ft 416 kts 335°
2026-04-30 18:55 44.92568 10.22176 30399 ft 415 kts 335°
2026-04-30 18:56 44.97700 10.18613 31247 ft 412 kts 335°
2026-04-30 18:56 45.00286 10.16805 31686 ft 410 kts 335°
2026-04-30 18:56 45.02830 10.15023 32124 ft 408 kts 335°
2026-04-30 18:57 45.07919 10.11468 33030 ft 405 kts 335°
2026-04-30 18:57 45.10425 10.09716 33474 ft 403 kts 335°
2026-04-30 18:57 45.12865 10.07856 33921 ft 403 kts 329°
2026-04-30 18:58 45.17483 10.03335 34253 ft 402 kts 327°
2026-04-30 18:58 45.19760 10.01088 34255 ft 401 kts 327°
2026-04-30 18:59 45.26688 9.94262 34255 ft 409 kts 328°
2026-04-30 19:00 45.36050 9.85001 34259 ft 411 kts 327°
2026-04-30 19:01 45.45442 9.75654 34239 ft 412 kts 328°
2026-04-30 19:02 45.51725 9.69396 34209 ft 413 kts 327°
2026-04-30 19:03 45.61126 9.59984 34192 ft 414 kts 327°
2026-04-30 19:04 45.70563 9.50487 34272 ft 415 kts 327°
2026-04-30 19:05 45.79984 9.40974 34285 ft 416 kts 328°
2026-04-30 19:06 45.89440 9.31404 34293 ft 417 kts 328°
2026-04-30 19:06 45.96577 9.24152 34285 ft 418 kts 327°
2026-04-30 19:07 46.03685 9.16877 34282 ft 420 kts 328°